Location: Medlow Airstrip Trail, Medlow Bath NSW 2780, Australia
(33.6682°S, 150.3233°E)
Time: 06:07:50
(UTC+11:00)

Explorer 7 - Pass Details

Date: 18 September 2019
Orbit: 485 x 680 km, 50.3° (Epoch: 19 October)

Event Time Altitude Azimuth Distance (km) Brightness Sun altitude
Rises 19:08:06 0° 244° (WSW) 2,569 11.7 -16.6°
Reaches altitude 10° 19:10:39 10° 261° (W) 1,689 10.6 -17.2°
Maximum altitude 19:13:32 21° 310° (NW) 1,179 9.0 -17.7°
Drops below altitude 10° 19:16:27 10° 359° (N) 1,715 9.2 -18.3°
Enters shadow 19:17:12 - 6° (N) 1,957 9.5 -18.5°
